Погода в Красноглинном

Россия / Свердловская область     59°23′27″N   61°14′27″E
темп.,
°C
ветер,
м/с
пор.,
м/с
влажн.,
%
обл.,
%
осадки,
мм/ч
давл.,
гПа
погр.,
м
17 июня, чт
чт1723:00+19ю41474100 0.1 1006355
02:00+18ююз414735 0.1 1004388
05:00+18ююз4127912 0.1 1002391
08:00+21з477193 0.1 1002846
11:00+17с4983100 0.6 1004682
14:00+19сз365796 0.0 10051242
17:00+22ссз672814 0.0 10062365
20:00+17ссз59384 0.0 1008915
18 июня, пт
пт1823:00+13ссз4124368 0.0 1011598
02:00+10с4105486 0.0 1013368
05:00+11ссв3757100 0.0 1015492
08:00+12с474897 0.0 1017752
11:00+16с46325 0.0 10182339
14:00+19ссз472593 0.0 10173180
17:00+19сз582822 0.0 10162791
20:00+17ссз483393 0.0 1016829
19 июня, сб
сб1923:00+11сз234830 0.0 101849
02:00+10зсз3105366 0.0 1018286
05:00+12зсз2762100 0.0 1018254
08:00+14зсз3666100 0.0 1018619
11:00+13зюз2573100 0.0 1017292
14:00+15з1370100 0.0 1015360
17:00+17ююз2263100 0.0 1014464
20:00+13ююз2596100 0.8 1013131
20 июня, вс
вс2023:00+13зюз279933 0.8 1011164
02:00+13зюз269796 0.0 1010139
05:00+14з2119789 0.4 1010343
08:00+17сз4108656 0.0 1011913
11:00+22ссз710358 0.0 10111861
14:00+22ссз711289 0.0 10131919
17:00+22с69285 0.0 10142263
20:00+19ссз48360 0.0 10161021
21 июня, пн
пн2123:00+12сз310535 0.0 1017179
02:00+10ссз396184 0.0 1018152
05:00+10с246321 0.0 101872
08:00+14ссв1252100 0.0 1018218
11:00+12юв0077100 0.4 101820
14:00+19ююв22499 0.6 1016839
17:00+21вюв324777 0.6 10141001
20:00+17вюв3663100 0.0 1014311